sat.trackr.live / text

‹ back to catalog

STARLINK-31804

NORAD 59641 · 2024-082L

PAYLOAD ACTIVE UNKNOWN

§ Identity

Operator
Country
US
Launch date
2024-05-03
Launch site
AFETR
Launch vehicle
Mass (kg)
RCS (m²)

Purposes: comms

External: N2YO · Heavens-Above · Gunter

§ Orbital elements

Epoch: 2026-09-20T23:43:35.033088Z

Period
94.27 min
Inclination
43.0037°
Eccentricity
0.0001380
Mean motion
15.27576545 rev/d
Perigee alt
482.1 km
Apogee alt
484.0 km
Semi-major
6,861.2 km
B*
6.8231e-6
RAAN
116.5821°
Arg perigee
272.2503°
Mean anomaly
87.8191°
Rev number
13,468

§ Raw data

STARLINK-318041 59641U 24082L   26263.98859992 -.00000074  00000+0  68231-5 0  99952 59641  43.0037 116.5821 0001380 272.2503  87.8191 15.27576545134684

JSON: /api/v1/satellites/59641 · /tle

For live sub-satellite position, see the globe view (requires WebGL).

§ Visibility from observer

Set your observer location to see the next 7 days of passes ≥ 10°. The values pass through the URL so the page stays shareable.

No JS? Fill the form by hand. The geolocation button needs JavaScript.